Regional Weather Roundup
Issued by NWS Jackson, KY

Home | Current Version | Previous Version | Graphics & Text | Print | Product List | Glossary On
Versions: 1 2 3 4 5 6 7 8 9 10 11 12 13 14 15 16 17 18 19 20 21 22 23 24 25 26 27 28 29 30 31 32 33 34 35 36 37 38 39 40 41 42 43 44 45 46 47 48 49 50
000
ASUS43 KJKL 030310
RWRJKL

EAST KENTUCKY HOURLY WEATHER ROUNDUP
NATIONAL WEATHER SERVICE JACKSON KY
1100 PM EDT THU JUL 02 2015

NOTE: "FAIR" INDICATES FEW OR NO CLOUDS BELOW 12,000 FEET WITH
NO SIGNIFICANT WEATHER AND/OR OBSTRUCTIONS TO VISIBILITY.

* THESE REPORTS ARE NOT UNDER NWS QUALITY CONTROL AND MAY NOT
  REPORT WEATHER SUCH AS PRECIPITATION AND FOG.

KYZ079-080-083-085-087-088-110-112-115-119-120-030400
...EASTERN KENTUCKY...

CITY           SKY/WX    TMP DP  RH WIND       PRES   REMARKS
JACKSON        CLOUDY    69  67  93 CALM      29.93R
LONDON         LGT RAIN  73  66  78 S5        29.91S
SOMERSET*      MOCLDY    70  70 100 CALM      29.90S
MONTICELLO*    CLOUDY    70  70 100 CALM      29.92R FOG
MIDDLESBORO*   LGT RAIN  70  70  99 CALM      29.94S
HARLAN APT*      N/A     70  68  94 CALM      29.95R
HAZARD APT*    HVY RAIN  70  70 100 CALM      29.93R
BLACK MTN*       N/A     61  61 100 S9          N/A
PIKEVILLE APT* FOG       66  66 100 CALM      29.95R VSB 1
BIG SANDY*     FOG       69  69  99 CALM      29.94R VSB 3/4
MOREHEAD APT*  PTCLDY    68  66  94 CALM      29.93S
$$

KYZ035-036-041-042-044-050-067-078-099-030400
...CENTRAL KENTUCKY...

CITY           SKY/WX    TMP DP  RH WIND       PRES   REMARKS
MT STERLING*   CLOUDY    68  68 100 E3        29.93S
FLEMING/MASON* CLEAR     66  66 100 E6        29.93R FOG
DANVILLE*      MOCLDY    70  68  94 CALM      29.90S
RICHMOND*      MOCLDY    68  66  94 CALM      29.89S
LEXINGTON      CLOUDY    72  69  90 E5        29.90R
FRANKFORT      CLOUDY    72  67  84 E5        29.89R
$$

KYZ091>093-OHZ055-061-077-WVZ005-015-034-035-042-030400
...SOUTHERN OHIO/WEST VIRGINIA...

CITY           SKY/WX    TMP DP  RH WIND       PRES   REMARKS
COVINGTON      CLOUDY    70  68  93 E5        29.92R FOG
COLUMBUS       MOCLDY    64  61  90 CALM      29.94R
DAYTON         MOCLDY    68  63  84 NE8       29.96R
WILMINGTON     PTCLDY    65  62  90 NE6       29.93R
HUNTINGTON     CLOUDY    68  66  93 CALM      29.92R
CHARLESTON     MOCLDY    66  64  93 CALM      29.94R FOG
PINEVILLE*     CLOUDY    66  66 100 MISG      30.01S FOG
BECKLEY        CLOUDY    64  61  90 E3        30.00R FOG
BLUEFIELD      FOG       64  61  90 SE3       30.02S VSB 1/4
$$

VAZ002-007-008-TNZ017-027-036-066-071-030400
...SOUTHWEST VIRGINIA/EAST TENNESSEE...

CITY           SKY/WX    TMP DP  RH WIND       PRES   REMARKS
WISE*          CLOUDY    64  64 100 SW3       30.02R
JONESVILLE*      N/A    N/A N/A N/A MISG        N/A
ABINGDON*      MOCLDY    69  67  94 CALM      30.00R
BRISTOL        CLOUDY    68  65  90 CALM      29.97R
KNOXVILLE      CLOUDY    74  68  81 SW9       29.92S
OAK RIDGE      CLOUDY    74  69  85 VRB3      29.94R
CROSSVILLE     TSTM      70  65  84 NW9       29.98R
NASHVILLE      CLOUDY    76  72  87 W5        29.90R
$$

...KEY TO REMARKS...
VSB - VISIBILITY IN MILES
WCI - WIND CHILL INDEX
HX  - HEAT INDEX

$$



USA.gov is the U.S. government's official web portal to all federal, state and local government web resources and services.